COSMOS 2133

导读 | 豆包AI

COSMOS 2133是独联体(CIS)在1991年2月14日发射的卫星,归属于苏联/俄罗斯“宇宙”(COSMOS)系列卫星,该系列多以军事应用为主,涵盖侦察、电子情报、技术试验等任务方向。作为冷战末期发射的航天器,它延续了苏联空间军事部署的脉络,目前该卫星已完成在轨任务周期,相关任务细节因保密未完全公开,其发射体现了当时独联体在航天领域的延续性发展。

Basic Information
目录编号:
21111
目录名称:
COSMOS 2133
国际标识:
1991-010A
轨道中心:
EARTH
卫星名称:
COSMOS 2133
卫星全名:
--
卫星状态:
在轨 (已飞行12860 天)
发射日期:
1991-02-14 UTC
国别 :
俄罗斯(独联体) (CIS)
星等 :
--
Orbit Information
数据来源 国际轨道数据 AOE轨道数据
星历时间 2026-04-30T23:29:14+0800
19小时前
查看轨道信息
2026-05-01T05:00:00+0800
13小时前
查看轨道信息
半长轴 42165.121km 42165.541km
偏心率 0.0003006 0.0003141
轨道倾角 13.277° 13.277°
近地点辐角 206.763° 202.910°
升交点赤经 343.099° 343.096°
平近点角 341.523° 68.290°
近地点 35774.309km 35774.159km
远地点 35799.659km 35800.649km
周期 1436.117分钟 1436.138分钟
每日圈数 1.002704 1.002689
Detailed Information
使用方式:
暂无
2D Orbit Map
3D Orbit Map
Orbit Altitude Analysis Chart
Orbit Inclination Analysis Chart
Orbit Comprehensive Analysis Chart
View Comprehensive Chart